User: anonymous
Location: Montr�al
(45.5000°N, 73.5830°W)
Time: 05:06:31
(UTC-04:00)
Language:

Cosmos 2369 - Orbit

View from above orbital plane
View from above orbital plane
View from above satellite
View from above satellite

Ground track
Ground track

The orbit data is extracted from the following two-line orbital elements,

1 26069U 00006A   14109.86682244 -.00000153  00000-0 -56026-4 0  2272
2 26069 070.9975 257.0040 0010890 196.3966 272.4204 14.13231898733035
Epoch (UTC): 19 April 2014 20:48:13
Eccentricity: 0.0010890
inclination: 70.9975°
perigee height: 840 km
apogee height: 856 km
right ascension of ascending node: 257.0040°
argument of perigee: 196.3966°
revolutions per day: 14.13231898
mean anomaly at epoch: 272.4204°
orbit number at epoch: 73303

The dashed part of the orbit path shows where the satellite is in the earth's shadow,  

DLR